Regional Weather Roundup
Issued by NWS Charleston, SC

Current Version | Previous Version | Graphics & Text | Print | Product List | Glossary On
Versions: 1 2 3 4 5 6 7 8 9 10 11 12 13 14 15 16 17 18 19 20 21 22 23 24 25 26 27 28 29 30 31 32 33 34 35 36 37 38 39 40 41 42 43 44 45 46 47 48 49 50
000
ASUS42 KCHS 031511
RWRCHS

REGIONAL WEATHER ROUNDUP
NATIONAL WEATHER SERVICE CHARLESTON SC
1000 AM EST TUE MAR 03 2015

NOTE: "FAIR" INDICATES FEW OR NO CLOUDS BELOW 12,000 FEET WITH NO
SIGNIFICANT WEATHER AND/OR OBSTRUCTIONS TO VISIBILITY.

NOT ALL STATIONS ARE QUALITY CONTROLLED BY THE NATIONAL
WEATHER SERVICE. USE DATA WITH CAUTION...ESPECIALLY
DEWPOINT OBSERVATIONS.

SCZ027-030-031-034>040-042>050-031600-
...SOUTHEAST SOUTH CAROLINA...

CITY           SKY/WX    TMP DP  RH WIND       PRES   REMARKS
N CHARLESTON   CLOUDY    55  47  74 E7        30.30S
WATERFRONT PRK   N/A     54 N/A N/A NE7         N/A
MOUNT PLEASANT CLOUDY    55  48  76 NE3       30.29S
PINOPOLIS      NOT AVBL
MONCKS CORNER  CLOUDY    52  45  76 E6        30.30F HAZE
SUMMERVILLE    CLOUDY    52  50  93 NE5       30.31S
BEAUFORT MCAS  LGT RAIN  56  54  93 E3        30.29R
BEAUFORT ARPT  CLOUDY    57  54  88 NE3       30.28S
HILTON HEAD IS CLOUDY    55  52  88 NE7       30.30R FOG
WALTERBORO     CLOUDY    55  55 100 E6        30.29S
ALLENDALE      CLOUDY    55  55 100 E5        30.27S FOG

...SOUTHERN MIDLANDS AND PEE DEE...

CITY           SKY/WX    TMP DP  RH WIND       PRES   REMARKS
GEORGETOWN     NOT AVBL
KINGSTREE      NOT AVBL
ORANGEBURG     CLOUDY    50  47  89 E5        30.30R
BARNWELL       CLOUDY    55  55 100 E8        30.28S FOG
AIKEN          DRIZZLE   54  54 100 E8        30.30F
MANNING        DRIZZLE  N/A N/A N/A E5        30.31F
COLUMBIA       DRIZZLE   50  47  89 E10       30.30S FOG
SUMTER         CLOUDY    44  41  89 NE9       30.31S FOG
FLORENCE       CLOUDY    43  30  60 NE8       30.34F
MYRTLE BEACH   CLOUDY    48  34  57 NE10      30.35R
N MYRTLE BEACH CLOUDY    47  34  60 NE8       30.32S

$$

GAZ063-065-086>088-099>101-113>116-118-119-134>141-150-031600-
...SOUTHEAST GEORGIA...

CITY           SKY/WX    TMP DP  RH WIND       PRES   REMARKS
SAVANNAH ARPT  FOG       58  57  97 E5        30.28S VSB 1
HUNTER AAF     CLOUDY    58  58 100 E7        30.26R
FORT STEWART   CLOUDY    61  59  93 CALM      30.24S
STATESBORO     CLOUDY    59  59 100 E3        30.27S FOG
SYLVANIA       CLOUDY    58  58 100 E5        30.27F FOG
CLAXTON        CLOUDY    63  61  94 CALM      30.26S

...CSRA...CENTRAL AND FAR SOUTHEAST GEORGIA...

CITY           SKY/WX    TMP DP  RH WIND       PRES   REMARKS
THOMSON        CLOUDY    58  58 100 E3        30.29F VSB 1
AUGUSTA-BUSH   CLOUDY    56  55  97 SE5       30.26F FOG
AUGUSTA-DANIEL CLOUDY    57  55  93 E8        30.27S FOG
SWAINSBORO     NOT AVBL
VIDALIA        CLOUDY    64  63  94 SE3       30.25S
EASTMAN        CLOUDY    66  65  96 SE5       30.26R
HAZLEHURST     CLOUDY    67  64  91 CALM      30.24R
ALMA           SUNNY     68  62  81 SE5       30.24F
WAYCROSS       CLOUDY    70  66  86 S5        30.25S
JESUP          CLOUDY    70  64  83 CALM      30.26S
BAXLEY         FAIR      68  63  83 S3        30.24S
BRUNSWICK      CLOUDY    66  61  82 SE3       30.26F
SAINT SIMONS   CLOUDY    63  59  87 CALM      30.26S

$$

SCZ027-028-034-036>038-045-046-048>050-GAZ119-141-031600-
...LAKE AND SUPPLEMENTAL COASTAL OBSERVATIONS...

STATION/POSITION TIME  TEMP    WIND        PRES    WAVE   SWELL
                       AIR SEA DIR/SP/G            HT/PER HT/PER/DIR
                 (UTC) (F)     (DEG/KT/KT) (MB)    (FT/S) (FT/S/D)
UPR LAKE MARION  NOT AVBL
WINYAH BAY       NOT AVBL
LAKE MURRAY      1400   50      70/  6/ 10 1025.1S
ACE BASIN NERRS  NOT AVBL
FORT PULASKI     1400   51                 1025.3
SAPELO ISLAND    1400   60        CALM     1024.0S

$$

ANZ835-935-AMZ111-154-330-350-352-354-370-450-454-472-031600-
...C-MAN AND BUOY OBSERVATIONS...

STATION/POSITION TIME  TEMP    WIND        PRES    WAVE   SWELL
                       AIR SEA DIR/SP/G            HT/PER HT/PER/DIR
                 (UTC) (F)     (DEG/KT/KT) (MB)    (FT/S) (FT/S/D)
BUOY 41004       1450   68 69   90/ 14/ 16 1024.3R   5/ 8   3/ 8
BUOY 41008       1450   57 53  190/  4/  4 1024.6S   2/ 9   2/100/ 9
FOLLY BEACH CMAN 1500   51      40/ 12/ 13 1026.1F
CAPERS NEARSHORE NOT AVBL
FRIPP NEARSHORE  1400   50      60/ 14/ 17 1023.9F


STATION/POSITION TIME  TEMP    WIND        PRES    WAVE   SWELL
                       AIR SEA DIR/SP/G            HT/PER HT/PER/DIR
                 (UTC) (F)     (DEG/KT/KT) (MB)    (FT/S) (FT/S/D)
5E ST. MARYS GA  1421      54                N/A     2/ 9
FRYING PAN BUOY  1450   62 61  110/ 16/ 17 1026.8R   6/ 6   3/160/ 9
BUOY 41025       NOT AVBL
CAPE LOOKOUT NC  1400   42      20/ 10/ 13 1028.7R
BUOY 41002       1450   65 73   90/ 16/ 19 1027.3R   8/ 7   5/ 90/ 9
BUOY 41010       1420   73 75   80/  8/ 10 1024.9R
ST AUGUSTINE FL  1500   65     180/  5/  5 1025.2R


$$


USA.gov is the U.S. government's official web portal to all federal, state and local government web resources and services.